Weather in Shuryshkary

Russia / Yamalo-Nenets Autonomous Okrug     65°54′08″N   65°21′01″E
temp.,
°C
wind,
m/s
gust,
m/s
humid.,
%
clouds,
%
prec.,
mm/h
press.,
hPa
HPBL,
m
27 february, sat
sat2723:00−24s1110096 0.0 102120
02:00−25s1210055 0.0 102120
05:00−25s1210058 0.0 102220
08:00−27sse1210043 0.0 102119
11:00−23sse229764 0.0 102296
14:00−20s239476 0.0 1022220
17:00−23s239861 0.0 102220
20:00−24s3310080 0.0 102120
28 february, sun
sun2823:00−25s2310085 0.0 102120
02:00−26s2310087 0.0 102020
05:00−27s2310080 0.0 102020
08:00−28s3310076 0.0 102021
11:00−25s359674 0.0 1020188
14:00−24s359580 0.0 1020240
17:00−26s339681 0.0 102037
20:00−27s349895 0.0 101937
1 march, mon
mon123:00−27ssw339894 0.0 101924
02:00−27ssw339992 0.0 101823
05:00−28ssw339995 0.0 101825
08:00−29ssw349986 0.0 101746
11:00−25ssw479682 0.0 1015272
14:00−22s479699 0.0 1013372
17:00−23s479999 0.1 1012154
20:00−23s4899100 0.1 1009138
2 march, tue
tue223:00−22s4998100 0.1 1007229
02:00−20s61197100 0.1 1005313
05:00−17s71394100 0.1 1003432
08:00−17s71195100 0.3 1002482
11:00−17s71095100 0.9 1002490
14:00−16s71094100 0.5 1001493
17:00−16s71094100 0.8 1001491
20:00−15s61195100 0.4 1001478
3 march, wed
wed323:00−14s61195100 1.1 1001478
02:00−14s61195100 0.7 1000444
05:00−15s61195100 1.2 1000376
08:00−15s51095100 0.6 1000361
11:00−15s6994100 1.1 1000402
14:00−14s5893100 0.4 1001425
17:00−14s4794100 0.8 1001421
20:00−14s4896100 0.3 1000289